Location: Chavannes
(47.1090°N, 0.2226°W)
Time: 04:34:27
(UTC+00:00)

ATLAS 5 CENTAUR R/B - Pass Details

Date: 16 October 2021
Orbit: 497 x 1159 km, 63.4° (Epoch: 25 November)

Event Time Altitude Azimuth Distance (km) Brightness Sun altitude
Rises 18:39:17 0° 200° (SSW) 2,581 5.0 -15.7°
Reaches altitude 10° 18:41:25 10° 193° (SSW) 1,726 4.0 -16.1°
Maximum altitude 18:45:01 43° 121° (ESE) 773 1.6 -16.7°
Enters shadow 18:46:05 35° 82° (E) 913 1.9 -16.9°
